Location: Corte Bragagnani
(45.3000°N, 11.1000°E)
Time: 09:06:12
(UTC+00:00)

COSMOS 2455 - Pass Details

Date: 09 April 2020
Orbit: 900 x 910 km, 67.1° (Epoch: 01 June)

Event Time Altitude Azimuth Distance (km) Brightness Sun altitude
Rises 20:02:24 0° 323° (NW) 3,545 7.3 -21.2°
Reaches altitude 10° 20:05:01 10° 317° (NW) 2,601 6.4 -21.6°
Maximum altitude 20:10:41 44° 247° (WSW) 1,242 3.7 -22.3°
Enters shadow 20:13:56 24° 190° (S) 1,809 4.1 -22.8°
